Date,TemperatureHighF,TemperatureAvgF,TemperatureLowF,DewpointHighF,DewpointAvgF,DewpointLowF,HumidityHigh,HumidityAvg,HumidityLow,PressureMaxIn,PressureMinIn,WindSpeedMaxMPH,WindSpeedAvgMPH,GustSpeedMaxMPH,PrecipitationSumIn
2013-2-1,45,35,26,32,28,23,96,78,48,0.00,40.00,6,3,16,0.00
2013-2-2,51,29,20,31,22,16,93,77,35,0.00,40.00,4,2,11,0.00
2013-2-3,49,32,20,24,21,18,90,69,31,0.00,40.00,5,3,13,0.00
2013-2-4,37,32,27,34,27,21,94,82,59,0.00,40.00,4,2,12,0.01
2013-2-5,52,36,29,31,26,17,94,69,27,0.00,40.00,5,3,18,0.01
2013-2-6,40,32,24,31,24,18,94,75,43,0.00,40.00,6,3,14,0.05
2013-2-7,43,29,23,22,18,15,80,65,33,0.00,40.00,6,3,13,0.02
2013-2-8,38,29,23,23,20,16,82,67,50,0.00,40.00,6,2,15,0.00
2013-2-9,34,29,26,23,19,12,86,68,40,0.00,40.00,5,2,10,0.00
2013-2-10,36,26,19,23,17,8,86,68,33,0.00,40.00,5,3,13,0.01
2013-2-11,39,22,11,20,13,6,81,69,46,0.00,40.00,6,3,12,0.01
2013-2-12,38,30,24,27,24,18,91,77,55,0.00,40.00,7,2,16,0.00
2013-2-13,41,37,32,31,26,23,89,65,48,0.00,40.00,7,4,21,0.00
2013-2-14,39,33,29,26,21,18,82,63,42,0.00,40.00,6,3,17,0.00
2013-2-15,51,34,25,27,24,22,88,69,38,0.00,40.00,6,2,12,0.00
2013-2-16,56,36,25,31,23,20,93,63,27,0.00,40.00,6,4,17,0.01
2013-2-17,36,30,25,31,24,19,93,78,52,0.00,40.00,5,3,17,0.09
2013-2-18,40,26,13,19,15,8,83,65,30,0.00,40.00,6,4,14,0.06
2013-2-19,41,31,25,27,19,12,90,62,30,0.00,40.00,6,2,14,0.00
2013-2-20,35,29,21,28,25,17,95,84,66,0.00,40.00,5,2,9,0.11
2013-2-21,34,22,6,23,12,1,88,71,38,0.00,40.00,5,3,11,0.02
2013-2-22,38,30,22,30,22,17,95,75,46,0.00,40.00,7,3,16,0.05
2013-2-23,34,28,21,30,20,12,95,73,46,0.00,40.00,6,3,16,0.07
2013-2-24,38,24,12,17,12,9,87,65,33,0.00,40.00,6,3,13,0.01
2013-2-25,33,24,17,27,18,11,93,78,63,0.00,40.00,7,3,15,0.12
2013-2-26,37,26,19,21,17,12,90,72,36,0.00,40.00,5,2,15,0.02
2013-2-27,46,26,15,16,11,8,81,58,21,0.00,40.00,7,4,18,0.00
2013-2-28,42,32,24,35,24,13,96,75,61,0.00,40.00,5,2,12,0.07